Location: Aufkirchen
(47.9603°N, 11.3653°E)
Time: 10:47:55
(UTC+01:00)

Tiros 1 - Pass Details

Date: 01 December 2020
Orbit: 630 x 663 km, 48.4° (Epoch: 21 January)

Event Time Altitude Azimuth Distance (km) Brightness Sun altitude
Rises 13:39:54 0° 200° (SSW) 2,979 12.4 16.9°
Reaches altitude 10° 13:42:50 10° 182° (S) 2,072 11.3 16.7°
Maximum altitude 13:46:06 18° 138° (SE) 1,592 9.6 16.4°
Drops below altitude 10° 13:49:21 10° 95° (E) 2,078 9.6 16.2°
Sets 13:52:19 0° 78° (ENE) 2,991 10.2 16.0°
